Location: Unspecified
(0.0000°N, 0.0000°E)
Time: 19:50:05
(UTC+00:00)

Tiros 1 - All Passes

Search period start: 28 April 2016 00:00
Search period end: 08 May 2016 00:00
Orbit: 631 x 665 km, 48.4° (Epoch: 27 April)

Date Brightness Start Highest point End Pass type
(mag) Time Alt. Az. Time Alt. Az. Time Alt. Az.
28 Apr - 00:38:17 10° S 00:42:09 25° SE 00:46:02 10° ENE night (unlit)
28 Apr - 02:20:17 10° WSW 02:24:12 26° NW 02:28:09 10° N night (unlit)
28 Apr - 12:50:55 10° NNW 12:55:24 44° NE 12:59:51 10° ESE daylight
28 Apr - 14:35:01 10° W 14:37:28 14° SW 14:39:54 10° SSW daylight
29 Apr - 01:03:43 10° SW 01:08:26 84° SE 01:13:12 10° NE night (unlit)
29 Apr - 11:37:37 10° NNE 11:39:35 12° NE 11:41:31 10° ENE daylight
29 Apr - 13:17:07 10° NW 13:21:40 51° SW 13:26:12 10° SSE daylight
29 Apr - 23:49:01 10° S 23:52:41 22° SE 23:56:22 10° ENE night (unlit)
30 Apr - 01:30:40 10° WSW 01:34:44 28° NW 01:38:50 10° N night (unlit)
30 Apr - 12:01:32 10° NNW 12:05:57 40° NE 12:10:19 10° ESE daylight
30 Apr - 13:45:10 10° W 13:47:59 16° SW 13:50:48 10° SSW daylight
01 May - 00:14:17 10° SW 00:18:59 75° SE 00:23:43 10° NE night (unlit)
01 May - 10:48:46 10° NNE 10:50:06 11° NE 10:51:25 10° ENE daylight
01 May - 12:27:35 10° NW 12:32:12 58° SW 12:36:49 10° SSE daylight
01 May - 22:59:47 10° S 23:03:13 20° SE 23:06:40 10° E night (unlit)
02 May - 00:41:05 10° WSW 00:45:15 31° NW 00:49:28 10° NNE night (unlit)
02 May - 11:12:09 10° NNW 11:16:29 35° NE 11:20:46 10° ESE daylight
02 May - 12:55:23 10° W 12:58:31 18° SW 13:01:40 10° S daylight
02 May - 23:24:51 10° SSW 23:29:30 67° SE 23:34:12 10° NE night (unlit)
03 May - 11:38:04 10° NW 11:42:45 66° SW 11:47:25 10° SSE daylight
03 May - 22:10:34 10° S 22:13:44 18° SE 22:16:55 10° E night (unlit)
03 May - 23:51:31 10° WSW 23:55:47 35° NW 00:00:06 10° NNE night (unlit)
04 May - 10:22:47 10° NNW 10:27:00 32° NE 10:31:12 10° ESE daylight
04 May - 12:05:38 10° W 12:09:03 20° SW 12:12:27 10° S daylight
04 May - 22:35:27 10° SSW 22:40:03 59° SE 22:44:41 10° NE night (unlit)
05 May - 00:20:57 10° WNW 00:22:10 11° NW 00:23:23 10° NW night (unlit)
05 May - 10:48:33 10° NW 10:53:17 74° SW 10:57:59 10° SSE daylight
05 May - 21:21:25 10° SSE 21:24:17 16° SE 21:27:08 10° E night (unlit)
05 May - 23:01:57 10° WSW 23:06:19 39° NW 23:10:43 10° NNE night (unlit)
06 May - 09:33:25 10° N 09:37:32 29° NE 09:41:37 10° ESE daylight
06 May - 11:15:56 10° WNW 11:19:35 22° SW 11:23:13 10° S daylight
06 May - 21:46:03 10° SSW 21:50:35 52° SE 21:55:09 10° NE night (unlit)
06 May - 23:30:49 10° WNW 23:32:41 12° NW 23:34:34 10° NNW night (unlit)
07 May - 09:59:03 10° NW 10:03:49 83° SW 10:08:33 10° SE daylight
07 May - 20:32:18 10° SSE 20:34:48 14° SE 20:37:18 10° E night (unlit)
07 May - 22:12:25 10° WSW 22:16:51 44° NW 22:21:19 10° NNE night (unlit)
